TimeEDT,TemperatureF,Dew PointF,Humidity,Sea Level PressureIn,VisibilityMPH,Wind Direction,Wind SpeedMPH,Gust SpeedMPH,PrecipitationIn,Events,Conditions,WindDirDegrees,DateUTC
12:53 AM,14.0,-0.9,52,30.38,10.0,West,3.5,-,N/A,,Clear,270,2013-03-18 04:53:00
1:53 AM,15.1,-2.0,47,30.40,10.0,WNW,4.6,-,N/A,,Clear,290,2013-03-18 05:53:00
2:53 AM,12.0,-0.0,59,30.39,10.0,Calm,Calm,-,N/A,,Clear,0,2013-03-18 06:53:00
3:53 AM,10.9,-0.0,61,30.40,10.0,Calm,Calm,-,N/A,,Clear,0,2013-03-18 07:53:00
4:53 AM,10.9,-0.9,59,30.40,10.0,Calm,Calm,-,N/A,,Clear,0,2013-03-18 08:53:00
5:53 AM,9.0,-0.0,67,30.43,10.0,Calm,Calm,-,N/A,,Clear,0,2013-03-18 09:53:00
6:53 AM,8.1,-0.9,67,30.44,10.0,Calm,Calm,-,N/A,,Clear,0,2013-03-18 10:53:00
7:53 AM,10.9,1.9,67,30.45,10.0,Calm,Calm,-,N/A,,Clear,0,2013-03-18 11:53:00
8:53 AM,18.0,3.0,52,30.46,10.0,Calm,Calm,-,N/A,,Clear,0,2013-03-18 12:53:00
9:53 AM,21.0,10.9,65,30.46,10.0,ESE,6.9,-,N/A,,Clear,110,2013-03-18 13:53:00
10:53 AM,24.1,6.1,46,30.45,10.0,SE,6.9,-,N/A,,Clear,130,2013-03-18 14:53:00
11:53 AM,25.0,5.0,43,30.43,10.0,SE,6.9,-,0.00,,Clear,140,2013-03-18 15:53:00
12:53 PM,27.0,6.1,41,30.41,10.0,SE,8.1,-,N/A,,Clear,130,2013-03-18 16:53:00
1:53 PM,28.0,1.9,33,30.37,10.0,SE,6.9,-,N/A,,Clear,130,2013-03-18 17:53:00
2:53 PM,28.9,1.0,30,30.33,10.0,South,5.8,-,N/A,,Clear,170,2013-03-18 18:53:00
3:53 PM,28.9,3.9,35,30.30,10.0,ENE,3.5,-,N/A,,Clear,70,2013-03-18 19:53:00
4:53 PM,28.9,5.0,36,30.27,10.0,Calm,Calm,-,N/A,,Clear,0,2013-03-18 20:53:00
5:53 PM,28.9,8.1,41,30.23,10.0,Variable,3.5,-,N/A,,Clear,0,2013-03-18 21:53:00
6:53 PM,28.0,10.0,47,30.21,10.0,Calm,Calm,-,N/A,,Clear,0,2013-03-18 22:53:00
7:53 PM,28.0,10.9,49,30.20,10.0,Calm,Calm,-,N/A,,Clear,0,2013-03-18 23:53:00
8:53 PM,27.0,10.9,51,30.18,10.0,Calm,Calm,-,N/A,,Clear,0,2013-03-19 00:53:00
9:53 PM,27.0,15.1,61,30.16,10.0,Calm,Calm,-,N/A,,Partly Cloudy,0,2013-03-19 01:53:00
10:53 PM,28.0,14.0,56,30.12,10.0,Calm,Calm,-,N/A,,Overcast,0,2013-03-19 02:53:00
11:53 PM,28.0,14.0,56,30.10,10.0,South,3.5,-,N/A,,Overcast,190,2013-03-19 03:53:00